Date,TemperatureHighF,TemperatureAvgF,TemperatureLowF,DewpointHighF,DewpointAvgF,DewpointLowF,HumidityHigh,HumidityAvg,HumidityLow,PressureMaxIn,PressureMinIn,WindSpeedMaxMPH,WindSpeedAvgMPH,GustSpeedMaxMPH,PrecipitationSumIn
2013-1-1,45.0,36.9,32.2,39.9,32.5,29.6,96,84,65,29.84,29.70,11,4,17,0.00
2013-1-2,43.7,38.9,35.1,41.0,34.3,31.8,100,84,70,30.30,29.80,14,7,26,0.00
2013-1-3,43.2,39.0,34.5,42.8,36.6,31.4,100,91,80,30.31,30.19,22,11,36,0.02
2013-1-4,50.0,46.5,43.0,49.0,44.5,39.8,100,93,76,30.34,30.09,17,8,25,0.17
2013-1-5,49.1,43.5,41.0,48.6,42.8,40.6,100,97,88,30.26,30.08,18,8,29,0.05
2013-1-6,44.2,42.3,40.3,44.0,41.6,40.0,100,97,89,30.25,30.03,17,6,26,0.05
2013-1-7,44.6,40.0,36.7,44.3,39.7,36.4,99,99,99,30.25,30.10,14,3,17,0.14
2013-1-8,42.1,39.3,34.5,41.8,39.0,34.3,99,99,99,30.22,30.07,10,2,16,0.08
2013-1-9,42.8,40.8,39.2,42.4,40.4,38.1,100,98,94,30.11,29.79,11,5,19,0.01
2013-1-10,39.2,36.7,33.3,39.0,35.7,32.8,100,96,87,29.80,29.62,14,6,22,0.07
2013-1-11,33.3,28.2,25.0,32.8,24.6,18.8,100,86,74,29.91,29.63,17,6,24,0.00
2013-1-12,35.2,25.9,22.1,24.7,20.5,16.5,95,80,59,29.97,29.89,11,3,15,0.00
2013-1-13,31.8,26.3,23.4,29.5,23.4,17.8,100,89,77,29.98,29.94,9,2,13,0.00
2013-1-14,33.8,26.3,21.2,33.3,25.8,21.0,100,98,89,29.94,29.79,11,3,18,0.00
2013-1-15,33.6,24.8,17.6,33.4,24.1,17.4,100,97,81,29.82,29.65,5,2,10,0.00
2013-1-16,28.8,26.2,24.3,28.5,26.0,24.0,99,99,99,29.68,29.62,11,2,14,0.00
2013-1-17,29.1,25.9,23.9,27.1,24.9,21.9,100,96,85,29.81,29.64,17,6,27,0.00
2013-1-18,24.3,21.9,19.2,23.7,20.9,18.7,100,96,87,29.80,29.60,13,4,21,0.00
2013-1-19,35.2,23.3,19.8,26.8,21.5,18.8,100,93,62,29.60,29.45,8,2,16,0.00
2013-1-20,27.3,24.3,19.9,27.1,23.4,19.0,100,97,88,29.47,29.37,11,3,18,0.00
2013-1-21,26.4,24.2,19.8,26.2,24.0,19.4,99,99,99,29.50,29.35,5,2,8,0.00
2013-1-22,32.2,21.8,18.0,23.9,19.8,17.3,100,92,69,29.68,29.50,5,2,7,0.00
2013-1-23,28.4,23.6,19.8,25.0,22.0,18.1,100,93,79,29.71,29.66,4,2,6,0.00
2013-1-24,24.8,22.4,19.2,24.5,21.7,17.8,100,97,92,29.89,29.68,8,3,14,0.00
2013-1-25,24.8,18.5,9.5,20.4,16.8,8.9,100,93,80,30.03,29.88,11,3,14,0.00
2013-1-26,17.4,11.9,1.8,15.3,10.4,-0.5,100,93,84,29.98,29.87,8,2,11,0.00
2013-1-27,31.5,25.5,15.3,30.7,24.1,14.1,100,94,84,29.89,29.64,10,3,16,0.00
2013-1-28,37.2,32.9,28.8,35.1,32.1,28.5,100,97,88,29.98,29.66,14,4,19,0.11
2013-1-29,42.8,38.7,34.2,42.5,38.0,33.9,100,97,90,29.97,29.76,26,10,36,0.02
2013-1-30,56.1,47.7,41.5,51.7,46.3,38.4,100,95,78,29.80,29.59,27,12,41,0.13
2013-1-31,48.4,43.3,37.6,41.3,35.6,31.8,99,75,55,29.88,29.68,24,10,43,0.07